Weather reports worldwide

Advertisment
Great Falls MT/Intl, United States of America (72775): temperature & dewpoint: 06.12.2019 22:00:00 - 12.12.2019 22:00:00 (MST)Great Falls MT/Intl, United States of America (72775): wind speed & gusts: 06.12.2019 22:00:00 - 12.12.2019 22:00:00 (MST)Great Falls MT/Intl, United States of America (72775): wind direction: 06.12.2019 22:00:00 - 12.12.2019 22:00:00 (MST)Great Falls MT/Intl, United States of America (72775): reduced air pressure: 06.12.2019 22:00:00 - 12.12.2019 22:00:00 (MST)Great Falls MT/Intl, United States of America (72775): visibility: 06.12.2019 22:00:00 - 12.12.2019 22:00:00 (MST)Great Falls MT/Intl, United States of America (72775): precipitation: 06.12.2019 22:00:00 - 12.12.2019 22:00:00 (MST)
Date & Time tt [°C] td [°C] ff [km/h] ff [kn] fx [km/h] fx [kn] dd ppp [hPa] vv [km] rr [mm]
12.12.2019 22:00:00 1,1 -6,7 13 7 - - SSW 1010,1 16 -
12.12.2019 21:00:00 1,1 -6,1 11 6 - - SW 1010,8 16 -
12.12.2019 20:00:00 2,2 -6,1 28 15 - - SW 1010,8 16 -
12.12.2019 19:00:00 2,8 -5,6 31 17 - - WSW 1011,3 16 -
12.12.2019 18:00:00 1,1 -5,6 24 13 52 28 WSW 1011,9 16 -
12.12.2019 17:00:00 1,7 -6,1 26 14 - - SW 1011,4 16 -
12.12.2019 16:00:00 4,4 -5,6 31 17 55 30 WSW 1010,5 16 -
12.12.2019 15:00:00 6,7 -5,0 37 20 61 33 WSW 1009,4 16 -
12.12.2019 14:00:00 7,2 -3,9 39 21 72 39 SW 1009,1 16 -
12.12.2019 13:00:00 7,8 -4,4 46 25 68 37 WSW 1008,3 16 -
12.12.2019 12:00:00 7,2 -3,3 48 26 61 33 WSW 1009,2 16 -
12.12.2019 11:00:00 7,2 -3,3 42 23 59 32 SW 1009,0 16 -
12.12.2019 10:00:00 6,7 -2,8 31 17 - - SW 1008,7 16 -
12.12.2019 09:00:00 3,9 -3,3 26 14 - - SW 1009,7 16 -
12.12.2019 08:00:00 1,7 -3,9 18 10 - - SSW 1010,8 16 -
12.12.2019 07:00:00 2,2 -3,9 22 12 - - SSW 1010,9 16 -
12.12.2019 06:00:00 2,8 -3,9 28 15 - - SW 1010,0 16 -
12.12.2019 05:00:00 2,2 -4,4 16 9 - - SSW 1010,9 16 -
12.12.2019 04:00:00 3,3 -3,9 35 19 - - SW 1010,7 16 -
12.12.2019 03:00:00 3,3 -4,4 18 10 - - SW 1011,3 16 -
12.12.2019 02:00:00 2,2 -4,4 21 11 - - SW 1011,8 16 -
12.12.2019 01:00:00 1,1 -5,0 16 9 - - SSW 1012,6 16 -
12.12.2019 00:00:00 -2,2 -6,7 11 6 - - SW 1013,8 16 -
11.12.2019 23:00:00 -1,1 -5,6 15 8 - - SW 1014,2 16 -
11.12.2019 22:00:00 -1,1 -5,6 16 9 - - SW 1014,5 16 -
11.12.2019 21:00:00 -1,7 -5,6 15 8 - - WSW 1014,9 16 -
11.12.2019 20:00:00 -2,8 -6,1 13 7 - - SW 1015,6 16 -
11.12.2019 19:00:00 -2,8 -6,1 13 7 - - WSW 1015,7 16 -
11.12.2019 18:00:00 -0,6 -4,4 16 9 - - WSW 1015,5 16 -
11.12.2019 17:00:00 1,1 -3,9 18 10 - - WSW 1014,8 16 -
11.12.2019 16:00:00 3,9 -3,3 21 11 - - WSW 1014,1 16 -
11.12.2019 15:00:00 5,0 -2,8 22 12 - - WSW 1012,9 16 -
11.12.2019 14:00:00 3,9 -3,3 31 17 54 29 SW 1012,7 16 -
11.12.2019 13:00:00 4,4 -3,3 34 18 63 34 SW 1012,6 16 -
11.12.2019 12:00:00 3,9 -3,9 41 22 59 32 SW 1012,4 16 -
11.12.2019 11:00:00 3,3 -5,0 42 23 61 33 SW 1013,1 16 -
11.12.2019 10:00:00 3,3 -5,6 42 23 61 33 SW 1012,7 16 -
11.12.2019 09:00:00 3,3 -6,1 42 23 57 31 SW 1012,4 16 -
11.12.2019 08:00:00 3,3 -6,1 31 17 57 31 SW 1012,3 16 -
11.12.2019 07:00:00 3,9 -6,7 42 23 55 30 SW 1011,8 16 -
11.12.2019 06:00:00 3,3 -6,7 37 20 50 27 SW 1013,4 16 -
11.12.2019 05:00:00 3,3 -6,1 29 16 - - SW 1013,8 16 -
11.12.2019 04:00:00 1,7 -5,6 22 12 - - SSW 1014,4 16 -
11.12.2019 03:00:00 2,2 -5,6 29 16 48 26 SSW 1014,5 16 -
11.12.2019 02:00:00 2,2 -6,1 37 20 50 27 SSW 1014,0 16 -
11.12.2019 01:00:00 1,1 -6,7 31 17 - - SSW 1015,2 16 -
11.12.2019 00:00:00 0,0 -6,7 15 8 - - S 1016,4 16 -
10.12.2019 23:00:00 0,0 -7,2 13 7 - - S 1017,5 16 -
10.12.2019 22:00:00 0,6 -6,1 16 9 - - S 1018,4 16 -
10.12.2019 21:00:00 1,1 -6,1 16 9 - - SW 1019,2 16 -
10.12.2019 20:00:00 1,1 -5,6 16 9 - - SSW 1019,8 16 -
10.12.2019 19:00:00 2,2 -5,0 22 12 - - SW 1020,2 16 -
10.12.2019 18:00:00 1,1 -5,6 21 11 - - SW 1020,4 16 -
10.12.2019 17:00:00 0,6 -4,4 21 11 - - SW 1020,7 16 -
10.12.2019 16:00:00 2,8 -3,9 22 12 - - SW 1020,2 16 -
10.12.2019 15:00:00 2,2 -3,9 24 13 - - SW 1021,0 16 -
10.12.2019 14:00:00 2,8 -3,9 24 13 - - SW 1020,7 16 -
10.12.2019 13:00:00 2,2 -4,4 22 12 - - SW 1020,8 16 -
10.12.2019 12:00:00 2,2 -4,4 24 13 - - SW 1021,4 16 -
10.12.2019 11:00:00 1,1 -5,0 26 14 - - SW 1021,7 16 -
10.12.2019 10:00:00 -1,1 -6,1 24 13 - - SW 1022,3 16 -
10.12.2019 09:00:00 -2,8 -6,7 21 11 - - SW 1022,1 16 -
10.12.2019 08:00:00 -4,4 -8,3 21 11 - - SSW 1022,2 16 -
10.12.2019 07:00:00 -6,1 -8,9 16 9 - - SSW 1022,5 16 -
10.12.2019 06:00:00 -6,1 -8,9 18 10 - - SSW 1022,6 16 -
10.12.2019 05:00:00 -6,7 -9,4 16 9 - - SSW 1022,8 16 -
10.12.2019 04:00:00 -7,8 -10,0 13 7 - - SW 1023,2 16 -
10.12.2019 03:00:00 -10,0 -12,2 15 8 - - SW 1023,5 16 -
10.12.2019 02:00:00 -8,3 -10,6 0 0 - - N 1023,6 16 -
10.12.2019 01:00:00 -7,8 -10,0 5 3 - - S 1024,0 15 -
10.12.2019 00:00:00 -7,8 -9,4 5 3 - - E 1024,4 16 -
09.12.2019 23:00:00 -8,3 -10,6 9 5 - - E 1024,6 16 -
09.12.2019 22:00:00 -8,9 -10,6 8 4 - - E 1025,0 16 -
09.12.2019 21:00:00 -7,2 -8,9 9 5 - - ESE 1024,7 16 -
09.12.2019 20:00:00 -5,6 -7,8 9 5 - - ESE 1024,7 16 -
09.12.2019 19:00:00 -4,4 -6,1 11 6 - - E 1024,8 11 -
09.12.2019 18:00:00 -2,8 -6,7 9 5 - - NE 1024,2 16 -
09.12.2019 17:00:00 -2,8 -7,2 0 0 - - N 1024,1 16 -
09.12.2019 16:00:00 -1,7 -6,7 13 7 - - N 1023,0 16 -
09.12.2019 15:00:00 0,6 -6,1 21 11 - - WNW 1021,7 16 -
09.12.2019 14:00:00 0,6 -5,6 24 13 - - W 1020,8 16 -
09.12.2019 13:00:00 1,1 -6,1 29 16 - - WSW 1021,7 16 -
09.12.2019 12:00:00 0,0 -6,1 29 16 - - WSW 1022,2 16 -
09.12.2019 11:00:00 -0,6 -6,7 26 14 - - SW 1022,9 16 -
09.12.2019 10:00:00 -1,7 -7,2 18 10 - - SW 1023,0 16 -
09.12.2019 09:00:00 -3,3 -7,8 21 11 - - SW 1023,0 16 -
09.12.2019 08:00:00 -3,9 -8,9 21 11 - - SW 1022,8 16 -
09.12.2019 07:00:00 -6,1 -10,6 9 5 - - SW 1023,9 16 -
09.12.2019 06:00:00 -6,1 -10,6 11 6 - - WSW 1023,4 16 -
09.12.2019 05:00:00 -10,0 -13,3 5 3 - - W 1023,5 16 -
09.12.2019 04:00:00 -7,2 -11,7 16 9 - - SW 1022,1 16 -
09.12.2019 03:00:00 -10,0 -13,9 11 6 - - WSW 1022,7 16 -
09.12.2019 02:00:00 -10,0 -13,9 13 7 - - SW 1021,9 16 -
09.12.2019 01:00:00 -13,3 -16,1 11 6 - - W 1022,6 16 -
09.12.2019 00:00:00 -12,8 -16,7 16 9 - - SW 1022,7 16 -
08.12.2019 23:00:00 -13,3 -17,2 15 8 - - SW 1022,8 16 -
08.12.2019 22:00:00 -14,4 -17,8 13 7 - - SW 1022,7 16 -
08.12.2019 21:00:00 -13,3 -16,7 16 9 - - SSW 1022,4 16 -
08.12.2019 20:00:00 -13,9 -17,2 21 11 - - SSW 1022,3 16 -
08.12.2019 19:00:00 -16,1 -18,9 15 8 - - SW 1022,4 16 -
08.12.2019 18:00:00 -14,4 -17,2 13 7 - - S 1022,3 16 -
08.12.2019 17:00:00 -14,4 -16,7 9 5 - - SSW 1022,7 16 -
08.12.2019 16:00:00 -12,2 -16,1 8 4 - - W 1022,5 16 -
08.12.2019 15:00:00 -10,6 -15,0 8 4 - - W 1021,8 16 0,0
08.12.2019 14:00:00 -10,6 -14,4 13 7 - - N 1021,4 8 0,0
08.12.2019 13:00:00 -10,0 -13,9 24 13 - - NNW 1021,0 11 0,3
08.12.2019 12:00:00 -10,0 -12,8 22 12 - - NW 1020,1 0,8 0,0
08.12.2019 11:00:00 -9,4 -13,3 26 14 - - NW 1019,3 2,8 0,0
08.12.2019 10:00:00 -10,0 -12,8 21 11 - - NNW 1018,0 0,4 0,0
08.12.2019 09:00:00 -8,9 -11,7 22 12 - - NNW 1014,9 0,4 0,3
08.12.2019 08:00:00 -7,8 -10,6 26 14 48 26 NNW 1013,5 2,0 0,0
08.12.2019 07:00:00 -6,1 -8,3 22 12 - - NNW 1011,4 1,2 0,5
08.12.2019 06:00:00 -6,1 -8,3 21 11 - - NNW 1009,8 3,2 0,0
08.12.2019 05:00:00 -5,6 -8,3 21 11 - - NNW 1008,9 13 -
08.12.2019 04:00:00 -5,6 -8,3 13 7 - - NNW 1008,5 13 -
08.12.2019 03:00:00 -5,6 -7,8 11 6 - - NNW 1008,7 15 -
08.12.2019 02:00:00 -5,0 -7,2 9 5 - - NNW 1009,0 10 -
08.12.2019 01:00:00 -4,4 -7,8 15 8 - - N 1009,4 11 -
08.12.2019 00:00:00 -4,4 -6,7 18 10 - - N 1009,6 8 -
07.12.2019 23:00:00 -3,3 -6,1 16 9 - - NNE 1009,2 8 -
07.12.2019 22:00:00 -1,1 -4,4 21 11 - - N 1008,4 10 -
07.12.2019 21:00:00 6,1 -2,2 21 11 - - NNE 1006,4 10 -
07.12.2019 20:00:00 5,6 -2,2 26 14 - - SW 1006,4 16 -
07.12.2019 19:00:00 6,1 -2,2 22 12 - - SW 1006,4 16 -
07.12.2019 18:00:00 7,2 -2,8 22 12 - - SSW 1006,5 16 -
07.12.2019 17:00:00 7,8 -2,8 22 12 - - SW 1006,3 16 -
07.12.2019 16:00:00 8,9 -2,8 22 12 - - SW 1006,2 16 -
07.12.2019 15:00:00 9,4 -2,8 24 13 - - SW 1006,2 16 -
07.12.2019 14:00:00 10,6 -2,8 26 14 - - SW 1006,0 16 -
07.12.2019 13:00:00 9,4 -3,3 26 14 - - SW 1006,6 16 -
07.12.2019 12:00:00 8,9 -3,9 29 16 50 27 SW 1006,9 16 -
07.12.2019 11:00:00 8,9 -3,9 28 15 - - SW 1007,5 16 -
07.12.2019 10:00:00 7,8 -4,4 26 14 - - SW 1007,9 16 -
07.12.2019 09:00:00 5,6 -4,4 34 18 - - SSW 1007,8 16 -
07.12.2019 08:00:00 4,4 -5,0 28 15 - - SW 1007,8 16 -
07.12.2019 07:00:00 5,6 -4,4 26 14 52 28 SSW 1008,1 16 -
07.12.2019 06:00:00 5,6 -5,0 31 17 48 26 SW 1008,4 16 -
07.12.2019 05:00:00 5,0 -4,4 29 16 - - S 1009,0 16 -
07.12.2019 04:00:00 4,4 -3,9 18 10 - - S 1009,3 16 -
07.12.2019 03:00:00 3,9 -3,9 22 12 - - S 1009,9 16 -
07.12.2019 02:00:00 4,4 -3,9 29 16 - - SSW 1010,4 16 -
07.12.2019 01:00:00 4,4 -3,9 28 15 - - S 1011,3 16 -
07.12.2019 00:00:00 5,6 -3,9 31 17 48 26 SSW 1011,4 16 -
06.12.2019 23:00:00 5,6 -3,9 26 14 - - SSW 1012,1 16 -
06.12.2019 22:00:00 5,6 -3,9 26 14 - - SSW 1012,5 16 -

tt = temperature
td = dewpoint
ff = wind speed
fx = gusts
dd = wind direction
ppp = reduced air pressure
vv = visibility
rr = precipitation

Next stations